User: anonymous   Login
Location: Bergen
(60.3910°N, 5.3250°E)
Time: 23:40:57
(UTC+01:00)
Language:

Cosmos 1943 - Orbit

View from above orbital plane
View from above orbital plane
View from above satellite
View from above satellite

Ground track
Ground track

The orbit data is extracted from the following two-line orbital elements,

1 19119U 88039A   14323.84355208  .00000240  00000-0  14872-3 0  2946
2 19119 071.0053 276.3439 0010235 037.1397 004.2652 14.14968508369074
Epoch (UTC): 19 November 2014 20:14:42
Eccentricity: 0.0010235
inclination: 71.0053°
perigee height: 835 km
apogee height: 850 km
right ascension of ascending node: 276.3439°
argument of perigee: 37.1397°
revolutions per day: 14.14968508
mean anomaly at epoch: 4.2652°
orbit number at epoch: 36907

The dashed part of the orbit path shows where the satellite is in the earth's shadow,  

DLR